DW5071 Weather Reports


time (UTC)temp
C
wind
direction
speed
KPH
gust
KPH
rain 1hr
cm
rain 24hr
cm
rain mn
cm
humidity
%
barometer
mb
20260502130517 21 248 1.6 4.8 0.00 0.00 0.00 38 1011.8
20260502123537 18 266 3.2 6.4 0.00 0.00 0.00 37 1011.4
20260502123016 17 267 1.6 4.8 0.00 0.00 0.00 37 1011.4
20260502122536 17 0.0 0.0 0.00 0.00 0.00 37 1011.3
20260502122016 17 0.0 0.0 0.00 0.00 0.00 37 1011.2
20260502121516 17 0.0 0.0 0.00 0.00 0.00 37 1011.2
20260502121016 17 0.0 0.0 0.00 0.00 0.00 38 1011.2
20260502120517 17 266 0.0 1.6 0.00 0.00 0.00 39 1011.1
20260502115516 17 0.0 0.0 0.00 0.00 0.00 41 1011.0
20260502115016 17 0.0 0.0 0.00 0.00 0.00 41 1011.0
20260502114517 17 0.0 0.0 0.00 0.00 0.00 41 1011.0
20260502114016 17 0.0 0.0 0.00 0.00 0.00 41 1010.9
20260502113516 17 0.0 0.0 0.00 0.00 0.00 41 1010.9
20260502113018 17 0.0 0.0 0.00 0.00 0.00 40 1010.9
20260502112516 17 0.0 0.0 0.00 0.00 0.00 39 1010.9
20260502112016 17 0.0 0.0 0.00 0.00 0.00 38 1010.9
20260502111516 17 0.0 0.0 0.00 0.00 0.00 39 1010.9
20260502111017 17 0.0 0.0 0.00 0.00 0.00 39 1010.9
20260502110516 17 0.0 0.0 0.00 0.00 0.00 38 1010.9
20260502110017 17 0.0 0.0 0.00 0.00 0.00 38 1010.8
20260502105516 18 0.0 0.0 0.00 0.00 0.00 37 1010.8
20260502105016 18 0.0 0.0 0.00 0.00 0.00 36 1010.8
20260502104516 18 0.0 0.0 0.00 0.00 0.00 36 1010.8
20260502104016 18 0.0 0.0 0.00 0.00 0.00 35 1010.8
20260502103516 19 0.0 0.0 0.00 0.00 0.00 35 1010.8
20260502103016 19 0.0 0.0 0.00 0.00 0.00 34 1010.7
20260502102516 20 0.0 0.0 0.00 0.00 0.00 32 1010.6
20260502102017 20 0.0 0.0 0.00 0.00 0.00 31 1010.7
20260502101516 20 0.0 0.0 0.00 0.00 0.00 30 1010.7
20260502101016 20 0.0 0.0 0.00 0.00 0.00 30 1010.6
20260502100517 21 266 0.0 3.2 0.00 0.00 0.00 29 1010.6
20260502091516 21 253 3.2 8.0 0.00 0.00 0.00 29 1010.4
20260502091016 21 243 3.2 8.0 0.00 0.00 0.00 29 1010.4
20260502090516 21 239 3.2 4.8 0.00 0.00 0.00 29 1010.4
20260502071536 21 250 1.6 4.8 0.00 0.00 0.00 32 1010.1
20260502071036 21 343 1.6 4.8 0.00 0.00 0.00 32 1010.1
20260502070536 21 23 0.0 1.6 0.00 0.00 0.00 33 1010.1
20260502070017 21 23 0.0 1.6 0.00 0.00 0.00 32 1010.1
20260502065516 21 0.0 0.0 0.00 0.00 0.00 32 1010.1
20260502065016 21 0.0 0.0 0.00 0.00 0.00 31 1010.2
20260502064536 21 0.0 0.0 0.00 0.00 0.00 31 1010.3
20260502064016 21 0.0 0.0 0.00 0.00 0.00 31 1010.2
20260502063516 22 0.0 0.0 0.00 0.00 0.00 30 1010.1
20260502063016 22 0.0 0.0 0.00 0.00 0.00 30 1010.1
20260502062516 22 0.0 0.0 0.00 0.00 0.00 30 1009.9
20260502062016 22 0.0 0.0 0.00 0.00 0.00 31 1009.9
20260502061516 22 0.0 0.0 0.00 0.00 0.00 29 1009.9
20260502061016 23 0.0 1.6 0.00 0.00 0.00 29 1009.9
20260502060516 23 23 0.0 1.6 0.00 0.00 0.00 29 1009.8
20260502060016 22 23 0.0 1.6 0.00 0.00 0.00 29 1009.8
20260502055536 22 0.0 0.0 0.00 0.00 0.00 30 1009.8
20260502055016 22 0.0 0.0 0.00 0.00 0.00 30 1009.8
20260502054536 22 0.0 0.0 0.00 0.00 0.00 30 1009.8
20260502054016 22 0.0 0.0 0.00 0.00 0.00 31 1009.7
20260502053516 22 0.0 0.0 0.00 0.00 0.00 31 1009.7
20260502053016 22 0.0 0.0 0.00 0.00 0.00 33 1009.7
20260502052516 22 0.0 0.0 0.00 0.00 0.00 31 1009.6
20260502052057 22 0.0 0.0 0.00 0.00 0.00 30 1009.6
20260502051536 22 0.0 0.0 0.00 0.00 0.00 30 1009.6
20260502051036 22 0.0 0.0 0.00 0.00 0.00 29 1009.5
20260502050516 23 0.0 0.0 0.00 0.00 0.00 29 1009.5
20260502050016 23 0.0 0.0 0.00 0.00 0.00 28 1009.5
20260502045516 23 0.0 0.0 0.00 0.00 0.00 28 1009.5
20260502045016 23 0.0 0.0 0.00 0.00 0.00 28 1009.6
20260502044516 23 0.0 0.0 0.00 0.00 0.00 27 1009.5
20260502044016 23 0.0 0.0 0.00 0.00 0.00 27 1009.5
20260502043516 23 0.0 0.0 0.00 0.00 0.00 27 1009.4
20260502043016 24 0.0 0.0 0.00 0.00 0.00 26 1009.3
20260502042516 24 0.0 0.0 0.00 0.00 0.00 26 1009.3
20260502042017 24 0.0 0.0 0.00 0.00 0.00 25 1009.3
20260502041536 24 0.0 1.6 0.00 0.00 0.00 25 1009.1
20260502041016 24 23 0.0 1.6 0.00 0.00 0.00 26 1009.0
20260502040516 24 0.0 0.0 0.00 0.00 0.00 25 1009.1
20260502040016 24 0.0 0.0 0.00 0.00 0.00 25 1009.0
20260502035516 24 0.0 0.0 0.00 0.00 0.00 24 1009.0
20260502035016 25 0.0 0.0 0.00 0.00 0.00 24 1008.9
20260502034517 25 0.0 0.0 0.00 0.00 0.00 24 1008.9
20260502034016 25 0.0 0.0 0.00 0.00 0.00 24 1008.8
20260502033516 25 0.0 0.0 0.00 0.00 0.00 24 1008.7
20260502033016 25 0.0 0.0 0.00 0.00 0.00 23 1008.6
20260502032516 25 0.0 0.0 0.00 0.00 0.00 23 1008.6
20260502032016 25 0.0 0.0 0.00 0.00 0.00 23 1008.6
20260502031556 26 0.0 0.0 0.00 0.00 0.00 23 1008.5
20260502031016 26 0.0 0.0 0.00 0.00 0.00 22 1008.5
20260502030516 26 0.0 0.0 0.00 0.00 0.00 22 1008.4
20260502030016 26 0.0 0.0 0.00 0.00 0.00 21 1008.4
20260502025516 27 0.0 0.0 0.00 0.00 0.00 21 1008.3
20260502025016 27 0.0 0.0 0.00 0.00 0.00 20 1008.2
20260502024516 27 0.0 0.0 0.00 0.00 0.00 20 1008.2
20260502024016 28 0.0 1.6 0.00 0.00 0.00 20 1008.1
20260502023516 28 23 0.0 1.6 0.00 0.00 0.00 20 1008.1
20260502023016 28 23 0.0 1.6 0.00 0.00 0.00 19 1008.0
20260502022516 28 23 0.0 1.6 0.00 0.00 0.00 19 1007.9
20260502022036 28 20 0.0 4.8 0.00 0.00 0.00 19 1007.9
20260502021525 28 54 1.6 4.8 0.00 0.00 0.00 18 1007.9
20260502021036 28 91 1.6 4.8 0.00 0.00 0.00 18 1007.8
20260502020516 29 86 1.6 4.8 0.00 0.00 0.00 18 1007.8
20260502020036 29 82 1.6 6.4 0.00 0.00 0.00 17 1007.8
20260502015516 29 98 0.0 3.2 0.00 0.00 0.00 18 1007.8
20260502015016 30 84 1.6 4.8 0.00 0.00 0.00 17 1007.7
20260502014516 30 84 1.6 6.4 0.00 0.00 0.00 17 1007.7
20260502014036 30 100 3.2 8.0 0.00 0.00 0.00 17 1007.6
20260502013516 30 95 1.6 6.4 0.00 0.00 0.00 17 1007.7
20260502013016 30 94 3.2 12.9 0.00 0.00 0.00 17 1007.6
20260502012516 30 85 4.8 12.9 0.00 0.00 0.00 17 1007.7
20260502012016 31 93 3.2 11.3 0.00 0.00 0.00 17 1007.7
20260502011516 31 90 1.6 9.7 0.00 0.00 0.00 18 1007.7
20260502011017 31 92 3.2 11.3 0.00 0.00 0.00 18 1007.7
20260502010536 31 89 3.2 11.3 0.00 0.00 0.00 18 1007.7
20260502010016 31 94 3.2 6.4 0.00 0.00 0.00 18 1007.6
20260502005536 32 73 3.2 8.0 0.00 0.00 0.00 17 1007.6
20260502005016 31 90 1.6 8.0 0.00 0.00 0.00 17 1007.6
20260502004516 31 90 3.2 8.0 0.00 0.00 0.00 16 1007.6
20260502004016 31 107 3.2 6.4 0.00 0.00 0.00 16 1007.6
20260502003516 31 99 3.2 9.7 0.00 0.00 0.00 16 1007.6
20260502003016 32 103 4.8 14.5 0.00 0.00 0.00 16 1007.6
20260502002516 31 104 3.2 8.0 0.00 0.00 0.00 17 1007.6
20260502002016 31 113 4.8 14.5 0.00 0.00 0.00 17 1007.6
20260502001516 32 121 4.8 11.3 0.00 0.00 0.00 17 1007.6
20260502001016 32 106 3.2 8.0 0.00 0.00 0.00 18 1007.7
20260502000517 32 108 3.2 8.0 0.00 0.00 0.00 18 1007.7
20260502000036 32 130 1.6 6.4 0.00 0.00 0.00 18 1007.7
20260501235516 32 163 3.2 6.4 0.00 0.00 0.00 18 1007.7
20260501235016 32 84 1.6 9.7 0.00 0.00 0.00 18 1007.8
20260501234516 32 94 3.2 9.7 0.00 0.00 0.00 19 1007.8
20260501234016 32 180 3.2 9.7 0.00 0.00 0.00 19 1007.8
20260501233537 31 102 3.2 9.7 0.00 0.00 0.00 19 1007.8
20260501233016 32 106 4.8 9.7 0.00 0.00 0.00 18 1007.8
20260501232516 32 93 3.2 8.0 0.00 0.00 0.00 18 1007.8
20260501232016 32 293 3.2 6.4 0.00 0.00 0.00 17 1007.9
20260501231536 32 86 3.2 6.4 0.00 0.00 0.00 17 1007.9
20260501231016 32 133 1.6 6.4 0.00 0.00 0.00 18 1007.9
20260501230516 32 107 3.2 8.0 0.00 0.00 0.00 18 1008.0
20260501230036 32 105 3.2 11.3 0.00 0.00 0.00 18 1008.0
20260501225516 31 121 3.2 8.0 0.00 0.00 0.00 18 1008.0
20260501225016 32 118 3.2 11.3 0.00 0.00 0.00 17 1008.1
20260501224516 32 108 4.8 12.9 0.00 0.00 0.00 17 1008.1
20260501224056 31 79 3.2 9.7 0.00 0.00 0.00 18 1008.2
20260501223516 31 121 3.2 4.8 0.00 0.00 0.00 18 1008.2
20260501223016 31 119 3.2 16.1 0.00 0.00 0.00 18 1008.4
20260501222516 31 88 6.4 16.1 0.00 0.00 0.00 18 1008.4
20260501222016 31 124 3.2 9.7 0.00 0.00 0.00 18 1008.4
20260501221556 31 124 3.2 6.4 0.00 0.00 0.00 18 1008.5
20260501221016 32 133 3.2 9.7 0.00 0.00 0.00 17 1008.6
20260501220518 32 84 4.8 9.7 0.00 0.00 0.00 17 1008.6
20260501220016 32 79 4.8 8.0 0.00 0.00 0.00 17 1008.7
20260501215516 31 102 1.6 6.4 0.00 0.00 0.00 16 1008.7
20260501215016 31 93 3.2 9.7 0.00 0.00 0.00 17 1008.9
20260501214516 31 143 3.2 8.0 0.00 0.00 0.00 17 1008.9
20260501214017 31 29 3.2 8.0 0.00 0.00 0.00 17 1009.0
20260501213516 31 98 3.2 9.7 0.00 0.00 0.00 18 1009.1
20260501213017 31 92 3.2 9.7 0.00 0.00 0.00 18 1009.1
20260501212516 31 92 4.8 9.7 0.00 0.00 0.00 17 1009.3
20260501212016 31 246 1.6 11.3 0.00 0.00 0.00 19 1009.3
20260501211516 31 271 4.8 12.9 0.00 0.00 0.00 18 1009.4
20260501211016 31 78 3.2 6.4 0.00 0.00 0.00 19 1009.5
20260501210516 31 254 3.2 6.4 0.00 0.00 0.00 19 1009.6
20260501210017 31 101 1.6 6.4 0.00 0.00 0.00 19 1009.7
20260501205516 31 99 3.2 8.0 0.00 0.00 0.00 19 1009.7
20260501205016 30 96 3.2 8.0 0.00 0.00 0.00 20 1009.7
20260501204516 30 104 3.2 6.4 0.00 0.00 0.00 21 1009.8
20260501204036 30 242 3.2 6.4 0.00 0.00 0.00 22 1009.8
20260501203517 30 248 6.4 9.7 0.00 0.00 0.00 21 1009.9
20260501203016 30 267 3.2 9.7 0.00 0.00 0.00 21 1010.0
20260501202517 30 95 3.2 9.7 0.00 0.00 0.00 21 1010.1
20260501202016 30 118 4.8 9.7 0.00 0.00 0.00 21 1010.1
20260501201516 30 66 3.2 6.4 0.00 0.00 0.00 21 1010.1
20260501201016 31 221 3.2 8.0 0.00 0.00 0.00 21 1010.2
20260501200516 30 42 3.2 9.7 0.00 0.00 0.00 21 1010.3
20260501200016 30 304 3.2 8.0 0.00 0.00 0.00 21 1010.2
20260501195517 30 79 3.2 8.0 0.00 0.00 0.00 22 1010.3
20260501195016 30 91 3.2 8.0 0.00 0.00 0.00 23 1010.3
20260501194516 30 103 3.2 8.0 0.00 0.00 0.00 23 1010.4
20260501194016 29 225 3.2 8.0 0.00 0.00 0.00 24 1010.4
20260501193516 29 244 1.6 6.4 0.00 0.00 0.00 24 1010.5
20260501193036 29 243 4.8 8.0 0.00 0.00 0.00 23 1010.6
20260501192516 30 223 3.2 8.0 0.00 0.00 0.00 24 1010.7
20260501192036 30 158 3.2 6.4 0.00 0.00 0.00 24 1010.7
20260501191516 29 97 3.2 9.7 0.00 0.00 0.00 25 1010.8
20260501191036 29 98 3.2 9.7 0.00 0.00 0.00 25 1010.9
20260501190516 28 106 1.6 4.8 0.00 0.00 0.00 26 1011.0
20260501190016 28 94 3.2 11.3 0.00 0.00 0.00 25 1011.1
20260501185517 28 104 4.8 11.3 0.00 0.00 0.00 26 1011.2
20260501185016 27 234 1.6 8.0 0.00 0.00 0.00 27 1011.2
20260501184516 27 95 3.2 8.0 0.00 0.00 0.00 27 1011.3
20260501184016 27 125 3.2 8.0 0.00 0.00 0.00 26 1011.3
20260501183516 28 126 3.2 8.0 0.00 0.00 0.00 27 1011.4
20260501183016 28 106 3.2 9.7 0.00 0.00 0.00 27 1011.5
20260501182517 28 103 4.8 9.7 0.00 0.00 0.00 27 1011.5
20260501182036 28 48 1.6 8.0 0.00 0.00 0.00 27 1011.6
20260501181516 28 101 3.2 8.0 0.00 0.00 0.00 27 1011.7
20260501181016 28 97 1.6 6.4 0.00 0.00 0.00 27 1011.7
20260501180516 28 142 1.6 3.2 0.00 0.00 0.00 27 1011.8
20260501180016 28 114 1.6 9.7 0.00 0.00 0.00 27 1011.8
20260501175516 28 25 3.2 9.7 0.00 0.00 0.00 27 1011.8
20260501175016 28 102 3.2 4.8 0.00 0.00 0.00 27 1011.9
20260501174526 27 289 1.6 4.8 0.00 0.00 0.00 29 1011.9
20260501174016 27 73 3.2 8.0 0.00 0.00 0.00 28 1011.9
20260501173536 27 103 3.2 8.0 0.00 0.00 0.00 29 1011.9
20260501173036 27 238 3.2 4.8 0.00 0.00 0.00 30 1011.9
20260501172516 26 138 1.6 6.4 0.00 0.00 0.00 30 1012.0
20260501172016 26 107 3.2 8.0 0.00 0.00 0.00 30 1012.0
20260501171517 26 142 1.6 4.8 0.00 0.00 0.00 31 1012.0
20260501171016 26 93 1.6 4.8 0.00 0.00 0.00 31 1012.0
20260501170516 26 103 1.6 6.4 0.00 0.00 0.00 31 1012.0
20260501170016 26 88 3.2 6.4 0.00 0.00 0.00 31 1012.0
20260501165516 26 80 1.6 6.4 0.00 0.00 0.00 32 1012.0
20260501165016 26 260 3.2 6.4 0.00 0.00 0.00 31 1012.0
20260501164516 26 113 1.6 4.8 0.00 0.00 0.00 32 1012.1
20260501164016 25 220 1.6 6.4 0.00 0.00 0.00 34 1012.1
20260501163516 25 243 3.2 6.4 0.00 0.00 0.00 33 1012.1
20260501163016 25 250 3.2 6.4 0.00 0.00 0.00 33 1012.0
20260501162516 25 23 3.2 6.4 0.00 0.00 0.00 33 1012.0
20260501162016 26 90 1.6 6.4 0.00 0.00 0.00 33 1011.9
20260501161517 25 76 1.6 4.8 0.00 0.00 0.00 34 1011.9
20260501161016 25 90 1.6 3.2 0.00 0.00 0.00 34 1011.9
20260501160516 25 122 1.6 3.2 0.00 0.00 0.00 35 1011.9
20260501160016 24 193 1.6 6.4 0.00 0.00 0.00 35 1011.8
20260501155516 24 160 1.6 6.4 0.00 0.00 0.00 35 1011.8
20260501155056 24 33 1.6 6.4 0.00 0.00 0.00 36 1011.8
20260501154516 24 67 3.2 4.8 0.00 0.00 0.00 36 1011.8
20260501154016 24 214 3.2 4.8 0.00 0.00 0.00 36 1011.7
20260501153516 24 220 1.6 3.2 0.00 0.00 0.00 37 1011.7
20260501153016 24 260 1.6 4.8 0.00 0.00 0.00 37 1011.6
20260501152536 24 276 1.6 4.8 0.00 0.00 0.00 38 1011.5
20260501152016 24 314 1.6 3.2 0.00 0.00 0.00 37 1011.5
20260501151536 24 330 1.6 3.2 0.00 0.00 0.00 37 1011.5
20260501151016 23 308 0.0 4.8 0.00 0.00 0.00 37 1011.5
20260501150536 23 262 1.6 4.8 0.00 0.00 0.00 38 1011.4
20260501150016 23 267 1.6 3.2 0.00 0.00 0.00 40 1011.4
20260501145516 22 250 1.6 3.2 0.00 0.00 0.00 41 1011.3
20260501144536 22 249 3.2 4.8 0.00 0.00 0.00 42 1011.3
20260501144016 21 274 1.6 6.4 0.00 0.00 0.00 43 1011.2
20260501143517 21 271 3.2 6.4 0.00 0.00 0.00 43 1011.2
20260501143016 21 243 1.6 4.8 0.00 0.00 0.00 44 1011.2
20260501142516 20 249 3.2 8.0 0.00 0.00 0.00 44 1011.1
20260501142016 20 244 4.8 9.7 0.00 0.00 0.00 44 1011.1